This demonstration page uses our WeatherBlox Daily Observations layout. Learn more.

Hourly Observations for August 20, 2016

Temp ( °F °C ) Dew Point ( °F °C ) Humidity (%) Winds ( mph kmh ) Pressure ( in mb ) Visibility ( mi km ) Precip ( " mm )
12:54 am 00:54 Mostly Clear 66 18.9 61 16.1 84 84 NNW 12 19 29.85 1011 10 16.0934 0 0
1:54 am 01:54 Mostly Cloudy 66 18.9 60 15.6 81 81 NW 7 11 29.85 1011 10 16.0934 0 0
2:54 am 02:54 Cloudy 66 18.9 59 15 78 78 NW 14 22 29.86 1011 10 16.0934 0 0
3:54 am 03:54 Clear 64 17.8 58 14.4 81 81 NW 14 22 29.87 1012 10 16.0934 0 0
4:54 am 04:54 Clear 61 16.1 56 13.3 84 84 NNW 17 28 29.88 1012 10 16.0934 0 0
5:54 am 05:54 Clear 60 15.6 54 12.2 80 80 NNW 14 22 29.9 1013 10 16.0934 0 0
6:54 am 06:54 Sunny 60 15.6 53 11.7 78 78 NNW 14 22 29.91 1013 10 16.0934 0 0
7:54 am 07:54 Sunny 61 16.1 54 12.2 78 78 NNW 16 26 29.94 1014 10 16.0934 0 0
8:45 am 08:45 Mostly Cloudy 63 17 54 12 73 73 NNW 21 33 29.94 1014 10 16.0934 0 0
8:54 am 08:54 Mostly Cloudy 62 16.7 54 12.2 75 75 NNW 16 26 29.94 1014 10 16.0934 0 0
9:09 am 09:09 Partly Cloudy 63 17.2 54 12.2 73 73 NNW 17 28 29.94 1014 10 16.0934 0 0
9:33 am 09:33 Mostly Cloudy 63 17.2 53 11.7 70 70 NNW 20 31 29.94 1014 10 16.0934 0 0
9:54 am 09:54 Partly Cloudy 63 17.2 53 11.7 70 70 N 17 28 29.93 1014 10 16.0934 0 0
10:05 am 10:05 Mostly Cloudy 66 18.9 54 12.2 65 65 N 21 33 29.94 1014 10 16.0934 0 0
10:46 am 10:46 Partly Cloudy 67 19.4 53 11.7 61 61 NNW 17 28 29.94 1014 10 16.0934 0 0
10:54 am 10:54 Partly Cloudy 66 18.9 53 11.7 63 63 NNW 20 31 29.94 1014 10 16.0934 0 0
11:54 am 11:54 Mostly Cloudy 68 20 53 11.7 59 59 NW 12 19 29.95 1014 10 16.0934 0 0
12:54 pm 12:54 Mostly Cloudy 69 20.6 52 11.1 55 55 NNW 18 30 29.94 1014 10 16.0934 0 0
1:54 pm 13:54 Mostly Cloudy 70 21.1 52 11.1 53 53 NNW 17 28 29.93 1014 10 16.0934 0 0
2:54 pm 14:54 Partly Cloudy 74 23.3 53 11.7 48 48 NNW 12 19 29.92 1013 10 16.0934 0 0
3:54 pm 15:54 Partly Cloudy 74 23.3 54 12.2 50 50 NNW 10 17 29.92 1013 10 16.0934 0 0
4:54 pm 16:54 Mostly Cloudy 72 22.2 52 11.1 50 50 N 10 17 29.92 1013 10 16.0934 0 0
5:54 pm 17:54 Partly Cloudy 75 23.9 53 11.7 46 46 NNW 7 11 29.92 1013 10 16.0934 0 0
6:54 pm 18:54 Partly Cloudy 74 23.3 51 10.6 45 45 NW 8 13 29.92 1013 10 16.0934 0 0
7:54 pm 19:54 Sunny 71 21.7 51 10.6 49 49 WNW 6 9 29.93 1013 10 16.0934 0 0
8:54 pm 20:54 Clear 67 19.4 53 11.7 61 61 WNW 3 6 29.94 1014 10 16.0934 0 0
9:54 pm 21:54 Clear 60 15.6 54 12.2 80 80 Calm 29.96 1015 10 16.0934 0 0
10:54 pm 22:54 Clear 59 15 54 12.2 83 83 Calm 29.96 1015 10 16.0934 0 0
11:54 pm 23:54 Clear 59 15 53 11.7 81 81 Calm 29.97 1015 10 16.0934 0 0

Powered by AerisWeather